[[{"header":{"parameterUnit":"m.s-1","parameterCategory":1,"la1":30.2991,"la2":30.254,"lo1":-89.0895,"lo2":-89.0444,"dy":0.0017,"dx":0.0017,"nx":28,"ny":28,"refTime":"2025-09-08T09:00:00:Z","depth":0,"parameterNumber":2,"parameterNumberName":"U-component_of_WINDS"},"data":[0,0,0,0,0,0,0,0,0,0,0,0,0,0,0,0,0,0,0,0,0,0,0,0,0,0,0,0,0,0,0,0,0,0,0,0,0,0,0,0,0,0,0,0,0,0,0,0,0,0,0,0,0,0,0,0,0,0,-4.6947,-4.6948,0,-4.7037,-4.7038,-4.7039,-4.6941,-4.6937,-4.6933,-4.693,-4.7021,-4.7026,-4.7032,0,0,0,0,0,0,0,0,0,0,0,0,0,-4.6691,-4.6696,-4.6947,-4.6948,-4.695,-4.7037,-4.7038,-4.7039,-4.6941,-4.6937,-4.6932,-4.6928,-4.7019,-4.7026,-4.7033,0,0,0,0,0,0,0,0,0,0,0,0,0,-4.6793,-4.6698,-4.6947,-4.6911,-4.6909,-4.7036,-4.7038,-4.7039,-4.6942,-4.6937,-4.6931,-4.6926,-4.7016,-4.7025,-4.7034,-4.72,0,0,-4.7061,-4.7065,0,0,0,0,0,0,0,0,-4.6788,-4.6803,-4.6916,-4.6914,-4.6912,-4.6972,-4.6981,-4.7093,-4.6944,-4.693,-4.693,-4.6923,-4.7009,-4.7018,-4.7047,-4.7205,-4.7209,-4.7061,-4.7067,-4.7071,-4.7073,0,0,0,0,0,0,0,-4.6781,-4.6799,-4.6983,-4.6917,-4.6915,-4.689,-4.6899,-4.7001,-4.7,-4.693,-4.6924,-4.6936,-4.7007,-4.7039,-4.7048,-4.721,-4.7061,-4.7069,-4.7075,-4.7078,-4.7509,-4.7514,0,0,0,0,0,0,-4.6778,-4.6793,-4.698,-4.6985,-4.6835,-4.69,-4.6909,-4.6958,-4.6998,-4.6999,-4.694,-4.6931,-4.7026,-4.7038,-4.7051,-4.7249,-4.7071,-4.7079,-4.7084,-4.7503,-4.751,-4.7517,0,0,0,0,0,0,-4.6773,-4.6795,-4.6976,-4.6888,-4.6909,-4.691,-4.6966,-4.6963,-4.6995,-4.7006,-4.7005,-4.6973,-4.7022,-4.7039,-4.7164,-4.7251,-4.7083,-4.7091,-4.7495,-4.7505,-4.7513,-4.7647,0,0,0,0,0,0,-4.6766,-4.6794,-4.6858,-4.689,-4.6914,-4.7089,-4.6971,-4.6969,-4.701,-4.6999,-4.7036,-4.7037,-4.7019,-4.7151,-4.7173,-4.726,-4.7098,-4.7487,-4.75,-4.751,-4.7635,-4.766,-4.7681,0,0,0,0,0,-4.6757,-4.6892,-4.6862,-4.6885,-4.6994,-4.7094,-4.7107,-4.7084,-4.7018,-4.7082,-4.7089,-4.7036,-4.7238,-4.7165,-4.7188,-4.728,-4.7482,-4.7496,-4.7509,-4.7625,-4.7655,-4.768,0,0,0,0,0,0,-4.687,-4.6895,-4.6862,-4.7012,-4.7051,-4.7077,-4.7157,-4.7117,-4.7176,-4.7163,-4.7131,-4.714,-4.7273,-4.7289,-4.7207,-4.7443,-4.7349,-4.7368,-4.7429,-4.7457,-4.748,-4.7474,-4.7105,0,0,0,0,0,-4.6913,-4.6992,-4.7009,-4.714,-4.7161,-4.7156,-4.7199,-4.7177,-4.7217,-4.7233,-4.7249,-4.7289,-4.7362,-4.741,-4.7477,-4.7636,-4.7643,-4.771,-4.7733,-4.7752,-4.777,-4.7855,-4.7885,-4.7562,-4.7562,-4.7561,0,0,-4.7001,-4.7024,-4.7077,-4.7163,-4.7191,-4.7274,-4.7171,-4.7263,-4.7324,-4.7247,-4.7367,-4.738,-4.7422,-4.7566,-4.7629,-4.7582,-4.786,-4.777,-4.7785,-4.7792,-4.7872,-4.7903,-4.793,-4.7571,-4.757,-4.7568,0,0,-4.7204,-4.723,-4.7342,-4.7372,-4.7416,-4.7411,-4.7438,-4.747,-4.7476,-4.7595,-4.754,-4.7611,-4.7737,-4.777,-4.7803,-4.8018,-4.7973,-4.8041,-4.8162,-4.8245,-4.8271,-4.8293,-4.8371,-4.8399,-4.8058,-4.8058,-4.8058,0,-4.7309,-4.7432,-4.7404,-4.75,-4.754,-4.7474,-4.7586,-4.7617,-4.7681,-4.7709,-4.7656,-4.7812,-4.7836,-4.7986,-4.8039,-4.8067,-4.8097,-4.8037,-4.8269,-4.8292,-4.8312,-4.8386,-4.8415,-4.8066,-4.8065,-4.8065,-4.8064,0,-4.7558,-4.7644,-4.7729,-4.7792,-4.7841,-4.7945,-4.7932,-4.7985,-4.7959,-4.796,-4.8083,-4.8109,-4.8181,-4.8214,-4.819,-4.8361,-4.8331,-4.8274,-4.8179,-4.8352,-4.842,-4.8448,-4.8078,-4.8075,-4.8073,-4.8071,0,0,-4.7837,-4.7883,-4.7915,-4.7943,-4.7986,-4.8052,-4.8153,-4.8223,-4.8269,-4.8315,-4.8398,-4.8506,-4.8453,-4.8491,-4.8469,-4.8543,-4.8713,-4.8477,-4.8477,-4.852,-4.8903,-4.8947,-4.898,-4.8682,-4.8687,-4.8691,-4.89,0,-4.8042,-4.8217,-4.8194,-4.8362,-4.8441,-4.8379,-4.8466,-4.8503,-4.8506,-4.8573,-4.8576,-4.8654,-4.8578,-4.8601,-4.8671,-4.8677,-4.8789,-4.8662,-4.876,-4.8764,-4.8752,-4.9015,-4.9062,-4.9257,-4.8927,-4.8931,-4.8934,0,-4.8305,-4.836,-4.8536,-4.8567,-4.86,-4.8679,-4.8741,-4.8806,-4.8846,-4.8843,-4.8885,-4.885,-4.8951,-4.8853,-4.8991,-4.8905,-4.8943,-4.8953,-4.896,-4.8969,-4.886,-4.9033,-4.9319,-4.9349,-4.8976,-4.8973,-4.897,0,-4.8491,-4.861,-4.8731,-4.8756,-4.8796,-4.8853,-4.8872,-4.8905,-4.8949,-4.9003,-4.9031,-4.9096,-4.9132,-4.9183,-4.9167,-4.9097,-4.9309,-4.921,-4.931,-4.931,-4.9358,-4.9355,-4.9656,-4.9382,-4.9381,-4.9381,-4.938,0,-4.8723,-4.8834,-4.8815,-4.889,-4.9011,-4.8983,-4.9104,-4.9115,-4.9146,-4.9221,-4.9171,-4.9242,-4.9216,-4.9286,-4.9273,-4.939,-4.9406,-4.9407,-4.9403,-4.9412,-4.9413,-4.9438,-4.9424,-4.9388,-4.9387,-4.9385,-4.9384,0,-4.8953,-4.8945,-4.9072,-4.9099,-4.9108,-4.9197,-4.9219,-4.9288,-4.9287,-4.9383,-4.9404,-4.9403,-4.9483,-4.9471,-4.956,-4.9551,-4.9697,-4.9675,-4.9684,-4.9679,-4.978,-4.9771,-5.0108,-5.0151,-4.9848,-4.9851,-4.9854,0,-4.9102,-4.9186,-4.9221,-4.9268,-4.9291,-4.9367,-4.9411,-4.9387,-4.9435,-4.9486,-4.9549,-4.9624,-4.9683,-4.9813,-4.982,-4.9888,-4.9868,-4.9981,-4.9878,-4.9885,-4.9871,-4.9867,-4.9875,-5.0002,-5.0006,-5.0009,-5.0011,0,-4.9368,-4.936,-4.9426,-4.9491,-4.9545,-4.9595,-4.9639,-4.968,-4.966,-4.9716,-4.9797,-4.9843,-4.9933,-5.0009,-5.0072,-5.009,-5.0049,-5.0043,-5.007,-5.0081,-5.0083,-5.0085,-4.9741,-5.0036,-5.0033,-5.0032,-5.003,-5.0029,-4.9563,-4.9634,-4.967,-4.9745,-4.9776,-4.9819,-4.9886,-4.9893,-4.996,-5.0032,-5.0013,-5.0105,-5.0141,-5.0222,-5.0248,-5.0319,-5.0277,-5.0316,-5.0326,-5.0336,-5.0349,-5.0071,-5.033,-5.0329,-5.0329,-5.0328,-5.0327,0,-4.9827,-4.9847,-4.9916,-4.998,-5.0039,-4.9993,-5.004,-5.0092,-5.0174,-5.0212,-5.027,-5.0364,-5.0436,-5.0449,-5.0518,-5.0572,-5.0555,-5.0592,-5.0588,-5.0593,-5.0382,-5.0352,-5.0605,-5.0605,-5.0605,-5.0605,-5.0605,-5.0604,-4.9972,-5.009,-5.0086,-5.0219,-5.0237,-5.0327,-5.0358,-5.0397,-5.0427,-5.0533,-5.0594,-5.0601,-5.0629,-5.0699,-5.0764,-5.0765,-5.0794,-5.0838,-5.0833,-5.0635,-5.0608,-5.0581,-5.0553,-5.0845,-5.0845,-5.1038,-5.104,-5.1041]},{"header":{"parameterUnit":"m.s-1","parameterCategory":1,"la1":30.2991,"la2":30.254,"lo1":-89.0895,"lo2":-89.0444,"dy":0.0017,"dx":0.0017,"nx":28,"ny":28,"refTime":"2025-09-08T09:00:00:Z","depth":0,"parameterNumber":3,"parameterNumberName":"V-component_of_WINDS"},"data":[0,0,0,0,0,0,0,0,0,0,0,0,0,0,0,0,0,0,0,0,0,0,0,0,0,0,0,0,0,0,0,0,0,0,0,0,0,0,0,0,0,0,0,0,0,0,0,0,0,0,0,0,0,0,0,0,0,0,-3.4501,-3.4501,0,-3.4427,-3.4426,-3.4426,-3.4336,-3.4335,-3.4334,-3.4332,-3.4257,-3.4256,-3.4255,0,0,0,0,0,0,0,0,0,0,0,0,0,-3.4565,-3.4564,-3.4501,-3.4501,-3.45,-3.4427,-3.4426,-3.4425,-3.4337,-3.4335,-3.4333,-3.4332,-3.4257,-3.4256,-3.4255,0,0,0,0,0,0,0,0,0,0,0,0,0,-3.4519,-3.4564,-3.4502,-3.4447,-3.4441,-3.4428,-3.4426,-3.4425,-3.4337,-3.4335,-3.4333,-3.4331,-3.4257,-3.4256,-3.4255,-3.429,0,0,-3.4252,-3.4251,0,0,0,0,0,0,0,0,-3.4521,-3.4516,-3.4456,-3.445,-3.4444,-3.4389,-3.4421,-3.438,-3.4337,-3.4376,-3.4332,-3.433,-3.4302,-3.4297,-3.4288,-3.4287,-3.4283,-3.4252,-3.4251,-3.4251,-3.425,0,0,0,0,0,0,0,-3.4525,-3.4519,-3.4472,-3.4455,-3.4448,-3.4425,-3.4416,-3.4413,-3.4352,-3.4373,-3.4366,-3.4359,-3.4299,-3.4289,-3.4286,-3.4282,-3.4252,-3.4251,-3.425,-3.425,-3.4302,-3.4304,0,0,0,0,0,0,-3.4536,-3.4522,-3.4474,-3.447,-3.4478,-3.4426,-3.4416,-3.4409,-3.4352,-3.4341,-3.436,-3.4355,-3.4292,-3.4287,-3.4283,-3.4318,-3.4251,-3.425,-3.4249,-3.43,-3.4303,-3.4305,0,0,0,0,0,0,-3.4538,-3.4533,-3.4477,-3.4494,-3.4485,-3.4427,-3.442,-3.4408,-3.4399,-3.4342,-3.4331,-3.4362,-3.429,-3.4284,-3.4288,-3.4314,-3.4249,-3.4248,-3.4298,-3.4301,-3.4304,-3.439,0,0,0,0,0,0,-3.454,-3.4534,-3.4547,-3.4495,-3.4485,-3.4485,-3.4421,-3.4408,-3.4397,-3.4389,-3.4341,-3.4331,-3.4288,-3.429,-3.4287,-3.4311,-3.4247,-3.4295,-3.4299,-3.4303,-3.4384,-3.4395,-3.4405,0,0,0,0,0,-3.4543,-3.4575,-3.4548,-3.4543,-3.45,-3.4487,-3.4481,-3.4431,-3.44,-3.4412,-3.4375,-3.4332,-3.4312,-3.4291,-3.4287,-3.4311,-3.4293,-3.4298,-3.4302,-3.438,-3.4393,-3.4404,0,0,0,0,0,0,-3.4632,-3.4567,-3.4537,-3.4554,-3.4526,-3.4472,-3.4486,-3.4447,-3.4428,-3.4421,-3.436,-3.435,-3.4361,-3.4337,-3.4315,-3.434,-3.4296,-3.43,-3.4356,-3.4368,-3.4379,-3.4384,-3.4246,0,0,0,0,0,-3.4654,-3.4648,-3.4592,-3.4612,-3.46,-3.4545,-3.4538,-3.4501,-3.4471,-3.4459,-3.4422,-3.4394,-3.438,-3.4373,-3.4358,-3.438,-3.4367,-3.4394,-3.4405,-3.4413,-3.4417,-3.4424,-3.4435,-3.432,-3.432,-3.432,0,0,-3.4699,-3.4662,-3.4663,-3.4629,-3.4603,-3.4598,-3.4536,-3.4534,-3.4529,-3.4458,-3.4459,-3.4432,-3.4396,-3.4408,-3.4412,-3.4388,-3.4446,-3.4419,-3.4427,-3.4426,-3.443,-3.4441,-3.4451,-3.4323,-3.4322,-3.4322,0,0,-3.4777,-3.475,-3.4762,-3.4738,-3.47,-3.4663,-3.4666,-3.4617,-3.4595,-3.4595,-3.4541,-3.4534,-3.4513,-3.4489,-3.4474,-3.4541,-3.45,-3.4538,-3.4591,-3.4599,-3.4608,-3.4616,-3.4637,-3.4646,-3.4542,-3.4542,-3.4543,0,-3.4837,-3.4828,-3.4774,-3.4774,-3.476,-3.4695,-3.4706,-3.4685,-3.4644,-3.4636,-3.4609,-3.458,-3.4551,-3.4556,-3.4572,-3.4563,-3.4563,-3.4543,-3.4611,-3.4618,-3.4625,-3.4645,-3.4653,-3.4547,-3.4547,-3.4546,-3.4546,0,-3.4903,-3.4897,-3.4912,-3.4873,-3.4861,-3.4867,-3.4813,-3.4806,-3.4771,-3.4737,-3.4736,-3.4699,-3.4674,-3.4672,-3.4638,-3.4671,-3.4657,-3.4622,-3.4576,-3.4641,-3.4659,-3.4666,-3.4554,-3.4552,-3.4551,-3.455,0,0,-3.5037,-3.4966,-3.4973,-3.4953,-3.4905,-3.4899,-3.4902,-3.4877,-3.4872,-3.4845,-3.4845,-3.4827,-3.4793,-3.4776,-3.4739,-3.4746,-3.4798,-3.4709,-3.4707,-3.4725,-3.4829,-3.4855,-3.4865,-3.4771,-3.4772,-3.4773,-3.4832,0,-3.5105,-3.5106,-3.5056,-3.507,-3.5062,-3.4999,-3.5001,-3.4971,-3.4939,-3.4927,-3.4891,-3.4879,-3.4836,-3.4825,-3.4829,-3.4791,-3.4818,-3.4786,-3.4768,-3.4768,-3.4778,-3.4875,-3.4903,-3.496,-3.4839,-3.484,-3.4841,0,-3.5186,-3.5163,-3.5176,-3.5125,-3.512,-3.5123,-3.5094,-3.5085,-3.5049,-3.5025,-3.5005,-3.4961,-3.4958,-3.4915,-3.4909,-3.4889,-3.4878,-3.4858,-3.4859,-3.4855,-3.4808,-3.4872,-3.4978,-3.4986,-3.4851,-3.485,-3.485,0,-3.528,-3.5252,-3.5255,-3.5241,-3.5183,-3.5186,-3.5162,-3.5124,-3.5111,-3.5086,-3.5077,-3.5053,-3.5039,-3.502,-3.497,-3.4944,-3.4969,-3.4923,-3.4948,-3.4949,-3.4955,-3.4956,-3.506,-3.4951,-3.4951,-3.4951,-3.4951,0,-3.5361,-3.5371,-3.5297,-3.5299,-3.5307,-3.525,-3.5259,-3.5229,-3.5195,-3.5189,-3.5133,-3.5129,-3.5064,-3.5051,-3.5013,-3.5012,-3.5007,-3.4986,-3.4975,-3.499,-3.4993,-3.4982,-3.4976,-3.4953,-3.4953,-3.4952,-3.4952,0,-3.5467,-3.5418,-3.5417,-3.5362,-3.5348,-3.5356,-3.5308,-3.5307,-3.527,-3.5263,-3.5258,-3.5201,-3.5183,-3.5131,-3.5101,-3.5074,-3.5085,-3.5066,-3.5097,-3.509,-3.5117,-3.5115,-3.5217,-3.5226,-3.5114,-3.5115,-3.5116,0,-3.5522,-3.5528,-3.5472,-3.5464,-3.5442,-3.543,-3.5416,-3.5359,-3.5347,-3.5305,-3.5309,-3.5286,-3.5265,-3.524,-3.5194,-3.517,-3.5149,-3.5186,-3.5145,-3.5159,-3.5147,-3.5147,-3.5146,-3.5195,-3.5197,-3.5198,-3.5199,0,-3.5623,-3.5598,-3.5581,-3.5554,-3.554,-3.5516,-3.549,-3.5486,-3.5422,-3.5411,-3.5391,-3.5375,-3.5343,-3.532,-3.5288,-3.5262,-3.5219,-3.5212,-3.5216,-3.5231,-3.5248,-3.5237,-3.512,-3.521,-3.5209,-3.5208,-3.5208,-3.5207,-3.5704,-3.5705,-3.5666,-3.5648,-3.5621,-3.5597,-3.5593,-3.5555,-3.5538,-3.5507,-3.5474,-3.5458,-3.542,-3.5372,-3.5348,-3.5334,-3.5312,-3.5318,-3.532,-3.5322,-3.5328,-3.5252,-3.5328,-3.5328,-3.5327,-3.5327,-3.5327,0,-3.5801,-3.5772,-3.5756,-3.572,-3.5705,-3.5666,-3.5634,-3.5624,-3.561,-3.5578,-3.5558,-3.5535,-3.5512,-3.5465,-3.5437,-3.5435,-3.5414,-3.5429,-3.5428,-3.5422,-3.535,-3.5349,-3.5446,-3.5446,-3.5446,-3.5446,-3.5446,-3.5446,-3.5849,-3.5849,-3.5819,-3.5804,-3.5775,-3.5759,-3.5743,-3.572,-3.5693,-3.567,-3.5651,-3.562,-3.5581,-3.5549,-3.5526,-3.5513,-3.5504,-3.5526,-3.5506,-3.5439,-3.5428,-3.5417,-3.5415,-3.5525,-3.5525,-3.5578,-3.5579,-3.5579]}]]